Regional Weather Roundup
Issued by NWS Glasgow, MT

Home | Current Version | Previous Version | Text Only | Print | Product List | Glossary On
Versions: 1 2 3 4 5 6 7 8 9 10 11 12 13 14 15 16 17 18 19 20 21 22 23 24 25 26 27
000
ASUS45 KGGW 310615
RWRGGW
HOURLY REGIONAL WEATHER ROUNDUP FOR NORTHEAST MONTANA
NATIONAL WEATHER SERVICE GLASGOW MONTANA
1200 AM MDT SAT JUL 31 2021

NOTE: "FAIR" INDICATES FEW OR NO CLOUDS BELOW 12,000 FEET WITH NO
SIGNIFICANT WEATHER AND/OR OBSTRUCTIONS TO VISISBILITY.

NORTHEAST MONTANA


CITY           SKY/WX    TMP DP  RH WIND       PRES   REMARKS
GLASGOW        CLEAR     74  45  35 E10       30.19R
6HR MIN TEMP:  74; 6HR MAX TEMP:  95;

PLENTYWOOD       N/A     67  52  58 SW6G14      N/A
WOLF POINT     CLEAR     69  44  40 NE6       30.20R
JORDAN           N/A     74  40  29 E7        30.21R
WINNETT          N/A     76  46  34 E5          N/A
SIDNEY         CLEAR     68  45  43 NW3       30.19R
GLENDIVE       CLEAR     73  45  36 NE9       30.21R
MALTA            N/A     68  34  28 E2          N/A

FORT PECK REPORTS


CITY           SKY/WX    TMP DP  RH WIND       PRES   REMARKS
FORT PECK        N/A     76  46  34 NE14G23     N/A
THE PINES        N/A     75  48  38 E6G14       N/A

SOUTHEAST MONTANA


CITY           SKY/WX    TMP DP  RH WIND       PRES   REMARKS
BILLINGS       MOCLDY    79  47  32 NE6       30.22R
MILES CITY     PTCLDY    78  49  35 NE12      30.19R
BAKER          CLEAR     71  49  45 NE6       30.22R
LIVINGSTON     PTCLDY    74  51  44 E13       30.27R

CENTRAL MONTANA


CITY           SKY/WX    TMP DP  RH WIND       PRES   REMARKS
HAVRE          CLEAR     77  42  28 E15       30.19R
LEWISTOWN      CLEAR     71  52  50 E8        30.27R
GREAT FALLS    CLEAR     77  49  37 E9        30.20R
CUT BANK       CLOUDY    77  50  38 NW16      30.26R
HELENA         CLEAR     75  49  39 NW6       30.19R
BUTTE          PTCLDY    74  43  32 S8        30.31R
BOZEMAN        PTCLDY    82  47  29 E15G21    30.22S

WESTERN MONTANA


CITY           SKY/WX    TMP DP  RH WIND       PRES   REMARKS
MISSOULA       CLEAR     75  42  30 NW7       30.11R
KALISPELL      NOT AVBL

NORTH DAKOTA


CITY           SKY/WX    TMP DP  RH WIND       PRES   REMARKS
WILLISTON      CLEAR     68  47  46 W6        30.20S
DICKINSON      CLEAR     71  54  54 N9        30.17S
MINOT          CLEAR     69  52  54 NW12      30.13R
BISMARCK       CLEAR     72  61  68 W6        30.12R SMOKE

SOUTHERN SASKATCHEWAN


CITY           SKY/WX    TMP DP  RH WIND       PRES   REMARKS
REGINA         CLEAR     68  46  45 NE8       30.21R
ESTEVAN        CLEAR     59  50  72 N6        30.18R
SWIFT CURRENT  MOCLDY    68  52  56 SE5       30.25R




USA.gov is the U.S. government's official web portal to all federal, state and local government web resources and services.